Terminal Aerodrome Forecast
Issued by NWS Charleston, WV

Current Version | Previous Version | Graphics & Text | Print | Product List | Glossary On
Versions: 1 2 3 4 5 6 7 8 9 10 11 12 13 14 15 16 17 18 19 20
000
FTUS41 KRLX 230500
TAFCRW
TAF
KCRW 230533Z 2306/2406 13009KT P6SM SCT035 BKN100
     FM231100 15005KT P6SM VCSH SCT015 BKN030
     FM231600 16005KT P6SM BKN045
     FM240300 14004KT 6SM BR OVC040
     FM240400 14004KT 5SM -SHRA BR OVC035=

USA.gov is the U.S. government's official web portal to all federal, state and local government web resources and services.